Time,TemperatureF,DewpointF,PressureIn,WindDirection,WindDirectionDegrees,WindSpeedMPH,WindSpeedGustMPH,Humidity,HourlyPrecipIn,Conditions,Clouds,dailyrainin,SoftwareType,DateUTC
2013-04-06 00:00:00,43.4,26.0,29.85,NNW,337,6.8,11.4,50,0.00,,,0.02,Rainwise IP-100,2013-04-06 04:00:00,
2013-04-06 00:04:00,43.3,26.0,29.86,NNW,337,9.6,9.8,50,0.00,,,0.00,Rainwise IP-100,2013-04-06 04:04:00,
2013-04-06 00:09:00,43.2,26.0,29.85,NW,315,6.3,11.7,51,0.00,,,0.00,Rainwise IP-100,2013-04-06 04:09:00,
2013-04-06 00:14:00,42.9,26.0,29.86,NW,315,5.4,9.3,51,0.00,,,0.00,Rainwise IP-100,2013-04-06 04:14:00,
2013-04-06 00:19:00,42.8,28.0,29.87,West,270,8.4,15.9,52,0.00,,,0.00,Rainwise IP-100,2013-04-06 04:19:00,
2013-04-06 00:24:00,42.8,28.0,29.86,WNW,292,9.6,13.3,52,0.00,,,0.00,Rainwise IP-100,2013-04-06 04:24:00,
2013-04-06 00:29:00,42.7,28.0,29.87,North,360,5.4,18.9,53,0.00,,,0.00,Rainwise IP-100,2013-04-06 04:29:00,
2013-04-06 00:34:00,42.4,28.0,29.87,NNW,337,6.3,11.4,54,0.00,,,0.00,Rainwise IP-100,2013-04-06 04:34:00,
2013-04-06 00:39:00,42.1,28.0,29.87,NNW,337,8.2,12.1,55,0.00,,,0.00,Rainwise IP-100,2013-04-06 04:39:00,
2013-04-06 00:44:00,41.8,28.0,29.87,NNW,337,8.2,15.6,55,0.00,,,0.00,Rainwise IP-100,2013-04-06 04:44:00,
2013-04-06 00:49:00,41.6,28.0,29.88,NNE,22,8.4,15.6,55,0.00,,,0.00,Rainwise IP-100,2013-04-06 04:49:00,
2013-04-06 00:54:00,41.5,28.0,29.88,NNW,337,8.4,14.9,54,0.00,,,0.00,Rainwise IP-100,2013-04-06 04:54:00,
2013-04-06 00:59:00,41.3,26.0,29.88,NW,315,5.6,10.3,54,0.00,,,0.00,Rainwise IP-100,2013-04-06 04:59:00,
2013-04-06 01:04:00,41.1,26.0,29.88,NNE,22,4.2,13.5,53,0.00,,,0.00,Rainwise IP-100,2013-04-06 05:04:00,
2013-04-06 01:09:00,41.0,26.0,29.89,NNE,22,5.6,14.7,53,0.00,,,0.00,Rainwise IP-100,2013-04-06 05:09:00,
2013-04-06 01:14:00,40.8,26.0,29.89,NNW,337,5.4,14.0,53,0.00,,,0.00,Rainwise IP-100,2013-04-06 05:14:00,
2013-04-06 01:19:00,40.7,26.0,29.88,North,360,7.0,15.6,53,0.00,,,0.00,Rainwise IP-100,2013-04-06 05:19:00,
2013-04-06 01:24:00,40.6,26.0,29.89,NW,315,4.0,12.8,53,0.00,,,0.00,Rainwise IP-100,2013-04-06 05:24:00,
2013-04-06 01:29:00,40.5,26.0,29.89,WNW,292,3.7,10.3,54,0.00,,,0.00,Rainwise IP-100,2013-04-06 05:29:00,
2013-04-06 01:34:00,40.3,26.0,29.90,North,360,10.5,10.5,54,0.00,,,0.00,Rainwise IP-100,2013-04-06 05:34:00,
2013-04-06 01:40:00,40.2,26.0,29.89,NNW,337,4.0,14.5,55,0.00,,,0.00,Rainwise IP-100,2013-04-06 05:40:00,
2013-04-06 01:45:00,40.0,26.0,29.90,WNW,292,3.0,11.2,55,0.00,,,0.00,Rainwise IP-100,2013-04-06 05:45:00,
2013-04-06 01:50:00,39.6,26.0,29.90,North,360,7.2,10.3,55,0.00,,,0.00,Rainwise IP-100,2013-04-06 05:50:00,
2013-04-06 01:55:00,39.6,26.0,29.90,NNW,337,9.8,10.7,56,0.00,,,0.00,Rainwise IP-100,2013-04-06 05:55:00,
2013-04-06 02:00:00,39.6,26.0,29.90,NNW,337,7.0,11.0,56,0.00,,,0.00,Rainwise IP-100,2013-04-06 06:00:00,
2013-04-06 02:05:00,39.5,26.0,29.90,North,360,5.6,11.9,57,0.00,,,0.00,Rainwise IP-100,2013-04-06 06:05:00,
2013-04-06 02:10:00,39.3,26.0,29.90,NNW,337,4.7,8.2,57,0.00,,,0.00,Rainwise IP-100,2013-04-06 06:10:00,
2013-04-06 02:15:00,39.2,26.0,29.91,NNW,337,5.1,9.1,58,0.00,,,0.00,Rainwise IP-100,2013-04-06 06:15:00,
2013-04-06 02:20:00,39.1,26.0,29.91,WNW,292,3.3,8.6,58,0.00,,,0.00,Rainwise IP-100,2013-04-06 06:20:00,
2013-04-06 02:25:00,38.9,26.0,29.92,NNW,337,3.5,6.1,59,0.00,,,0.00,Rainwise IP-100,2013-04-06 06:25:00,
2013-04-06 02:30:00,38.8,26.0,29.91,NNW,337,4.7,8.4,59,0.00,,,0.00,Rainwise IP-100,2013-04-06 06:30:00,
2013-04-06 02:35:00,39.0,26.0,29.92,NW,315,2.3,11.9,59,0.00,,,0.00,Rainwise IP-100,2013-04-06 06:35:00,
2013-04-06 02:40:00,39.1,26.0,29.92,NNW,337,4.7,11.7,59,0.00,,,0.00,Rainwise IP-100,2013-04-06 06:40:00,
2013-04-06 02:45:00,39.0,26.0,29.92,North,360,0.0,8.2,60,0.00,,,0.00,Rainwise IP-100,2013-04-06 06:45:00,
2013-04-06 02:50:00,38.7,26.0,29.93,NW,315,3.5,7.2,60,0.00,,,0.00,Rainwise IP-100,2013-04-06 06:50:00,
2013-04-06 02:55:00,38.5,26.0,29.93,North,360,1.6,6.3,60,0.00,,,0.00,Rainwise IP-100,2013-04-06 06:55:00,
2013-04-06 03:00:00,38.3,26.0,29.93,North,360,1.6,11.4,60,0.00,,,0.00,Rainwise IP-100,2013-04-06 07:00:00,
2013-04-06 03:05:00,38.3,26.0,29.94,NW,315,5.6,11.0,60,0.00,,,0.00,Rainwise IP-100,2013-04-06 07:05:00,
2013-04-06 03:10:00,38.5,26.0,29.94,North,360,9.1,10.3,60,0.00,,,0.00,Rainwise IP-100,2013-04-06 07:10:00,
2013-04-06 03:15:00,38.6,26.0,29.94,NNW,337,5.8,10.3,60,0.00,,,0.00,Rainwise IP-100,2013-04-06 07:15:00,
2013-04-06 03:20:00,38.5,26.0,29.94,NNW,337,5.6,10.3,60,0.00,,,0.00,Rainwise IP-100,2013-04-06 07:20:00,
2013-04-06 03:25:00,38.4,26.0,29.95,NNW,337,5.8,15.2,60,0.00,,,0.00,Rainwise IP-100,2013-04-06 07:25:00,
2013-04-06 03:30:00,38.4,26.0,29.95,North,360,4.0,13.8,60,0.00,,,0.00,Rainwise IP-100,2013-04-06 07:30:00,
2013-04-06 03:35:00,38.3,26.0,29.95,NNW,337,7.9,11.0,60,0.00,,,0.00,Rainwise IP-100,2013-04-06 07:35:00,
2013-04-06 03:40:00,38.2,26.0,29.95,North,360,4.0,14.2,60,0.00,,,0.00,Rainwise IP-100,2013-04-06 07:40:00,
2013-04-06 03:45:00,38.0,26.0,29.96,North,360,2.3,11.0,60,0.00,,,0.00,Rainwise IP-100,2013-04-06 07:45:00,
2013-04-06 03:50:00,37.7,26.0,29.96,North,360,3.0,9.1,61,0.00,,,0.00,Rainwise IP-100,2013-04-06 07:50:00,
2013-04-06 03:55:00,37.6,26.0,29.96,NW,315,7.7,10.5,61,0.00,,,0.00,Rainwise IP-100,2013-04-06 07:55:00,
2013-04-06 04:00:00,37.5,26.0,29.97,WNW,292,4.7,14.0,62,0.00,,,0.00,Rainwise IP-100,2013-04-06 08:00:00,
2013-04-06 04:05:00,37.5,26.0,29.97,NNW,337,4.0,9.8,62,0.00,,,0.00,Rainwise IP-100,2013-04-06 08:05:00,
2013-04-06 04:10:00,37.6,26.0,29.98,NNW,337,7.5,12.6,61,0.00,,,0.00,Rainwise IP-100,2013-04-06 08:10:00,
2013-04-06 04:15:00,37.7,26.0,29.98,North,360,1.6,9.6,61,0.00,,,0.00,Rainwise IP-100,2013-04-06 08:15:00,
2013-04-06 04:20:00,37.7,26.0,29.98,NNW,337,2.8,9.3,61,0.00,,,0.00,Rainwise IP-100,2013-04-06 08:20:00,
2013-04-06 04:25:00,37.8,26.0,29.98,NW,315,7.2,10.0,61,0.00,,,0.00,Rainwise IP-100,2013-04-06 08:25:00,
2013-04-06 04:30:00,37.8,26.0,29.98,NNW,337,2.1,9.3,61,0.00,,,0.00,Rainwise IP-100,2013-04-06 08:30:00,
2013-04-06 04:35:00,37.5,26.0,29.98,NNW,337,3.7,6.8,61,0.00,,,0.00,Rainwise IP-100,2013-04-06 08:35:00,
2013-04-06 04:40:00,37.4,26.0,29.99,WNW,292,1.9,8.6,62,0.00,,,0.00,Rainwise IP-100,2013-04-06 08:40:00,
2013-04-06 04:45:00,37.4,26.0,29.99,NNW,337,2.6,5.8,62,0.00,,,0.00,Rainwise IP-100,2013-04-06 08:45:00,
2013-04-06 04:50:00,37.4,26.0,29.99,North,360,2.6,9.1,62,0.00,,,0.00,Rainwise IP-100,2013-04-06 08:50:00,
2013-04-06 04:55:00,37.4,24.0,30.00,North,360,2.1,9.3,61,0.00,,,0.00,Rainwise IP-100,2013-04-06 08:55:00,
2013-04-06 05:00:00,37.4,24.0,30.00,NNW,337,0.0,6.8,61,0.00,,,0.00,Rainwise IP-100,2013-04-06 09:00:00,
2013-04-06 05:05:00,37.3,24.0,30.01,North,360,0.0,6.8,61,0.00,,,0.00,Rainwise IP-100,2013-04-06 09:05:00,
2013-04-06 05:10:00,37.1,24.0,30.00,NNW,337,4.4,9.1,61,0.00,,,0.00,Rainwise IP-100,2013-04-06 09:10:00,
2013-04-06 05:15:00,37.0,24.0,30.01,NNE,22,3.0,8.4,60,0.00,,,0.00,Rainwise IP-100,2013-04-06 09:15:00,
2013-04-06 05:20:00,36.9,24.0,30.01,NNW,337,2.6,13.5,59,0.00,,,0.00,Rainwise IP-100,2013-04-06 09:20:00,
2013-04-06 05:25:00,36.6,24.0,30.02,NNW,337,10.3,10.3,58,0.00,,,0.00,Rainwise IP-100,2013-04-06 09:25:00,
2013-04-06 05:30:00,36.4,23.0,30.02,North,360,3.3,13.5,57,0.00,,,0.00,Rainwise IP-100,2013-04-06 09:30:00,
2013-04-06 05:35:00,36.1,23.0,30.02,North,360,7.2,10.0,57,0.00,,,0.00,Rainwise IP-100,2013-04-06 09:35:00,
2013-04-06 05:40:00,35.8,23.0,30.03,NNW,337,7.5,9.8,57,0.00,,,0.00,Rainwise IP-100,2013-04-06 09:40:00,
2013-04-06 05:45:00,35.8,23.0,30.03,NNW,337,6.5,13.3,55,0.00,,,0.00,Rainwise IP-100,2013-04-06 09:45:00,
2013-04-06 05:50:00,35.7,21.0,30.03,West,270,6.3,15.2,51,0.00,,,0.00,Rainwise IP-100,2013-04-06 09:50:00,
2013-04-06 05:55:00,35.6,18.0,30.04,NW,315,8.9,14.7,48,0.00,,,0.00,Rainwise IP-100,2013-04-06 09:55:00,
2013-04-06 06:00:00,35.4,16.0,30.03,North,360,12.6,18.0,45,0.00,,,0.00,Rainwise IP-100,2013-04-06 10:00:00,
2013-04-06 06:05:00,35.3,16.0,30.04,North,360,9.6,16.8,44,0.00,,,0.00,Rainwise IP-100,2013-04-06 10:05:00,
2013-04-06 06:10:00,35.3,16.0,30.04,NW,315,4.0,14.5,44,0.00,,,0.00,Rainwise IP-100,2013-04-06 10:10:00,
2013-04-06 06:15:00,35.1,16.0,30.04,WNW,292,7.9,16.8,44,0.00,,,0.00,Rainwise IP-100,2013-04-06 10:15:00,
2013-04-06 06:20:00,34.9,16.0,30.05,North,360,6.8,14.5,44,0.00,,,0.00,Rainwise IP-100,2013-04-06 10:20:00,
2013-04-06 06:25:00,34.8,16.0,30.05,WNW,292,9.3,18.4,44,0.00,,,0.00,Rainwise IP-100,2013-04-06 10:25:00,
2013-04-06 06:30:00,34.9,16.0,30.06,WNW,292,6.1,22.9,43,0.00,,,0.00,Rainwise IP-100,2013-04-06 10:30:00,
2013-04-06 06:35:00,34.9,14.0,30.06,NW,315,6.5,19.4,42,0.00,,,0.00,Rainwise IP-100,2013-04-06 10:35:00,
2013-04-06 06:40:00,34.8,14.0,30.06,WNW,292,5.6,18.2,41,0.00,,,0.00,Rainwise IP-100,2013-04-06 10:40:00,
2013-04-06 06:45:00,34.7,14.0,30.07,North,360,4.0,21.9,41,0.00,,,0.00,Rainwise IP-100,2013-04-06 10:45:00,
2013-04-06 06:50:00,34.7,14.0,30.07,WNW,292,6.8,17.5,40,0.00,,,0.00,Rainwise IP-100,2013-04-06 10:50:00,
2013-04-06 06:55:00,34.6,14.0,30.08,NNW,337,8.6,20.3,40,0.00,,,0.00,Rainwise IP-100,2013-04-06 10:55:00,
2013-04-06 07:00:00,34.6,14.0,30.09,West,270,5.4,19.8,39,0.00,,,0.00,Rainwise IP-100,2013-04-06 11:00:00,
2013-04-06 07:05:00,34.6,14.0,30.09,NW,315,11.4,21.9,39,0.00,,,0.00,Rainwise IP-100,2013-04-06 11:05:00,
2013-04-06 07:10:00,34.7,14.0,30.09,WNW,292,6.5,23.6,39,0.00,,,0.00,Rainwise IP-100,2013-04-06 11:10:00,
2013-04-06 07:15:00,34.6,14.0,30.09,North,360,3.3,13.3,39,0.00,,,0.00,Rainwise IP-100,2013-04-06 11:15:00,
2013-04-06 07:20:00,34.6,14.0,30.09,North,360,0.0,12.1,39,0.00,,,0.00,Rainwise IP-100,2013-04-06 11:20:00,
2013-04-06 07:25:00,34.7,14.0,30.10,NNW,337,7.2,14.0,40,0.00,,,0.00,Rainwise IP-100,2013-04-06 11:25:00,
2013-04-06 07:30:00,34.7,14.0,30.11,NNW,337,3.0,13.1,40,0.00,,,0.00,Rainwise IP-100,2013-04-06 11:30:00,
2013-04-06 07:34:00,34.8,14.0,30.11,NNW,337,7.7,14.0,39,0.00,,,0.00,Rainwise IP-100,2013-04-06 11:34:00,
2013-04-06 07:39:00,34.8,14.0,30.10,North,360,4.0,13.5,39,0.00,,,0.00,Rainwise IP-100,2013-04-06 11:39:00,
2013-04-06 07:44:00,35.0,14.0,30.11,NNW,337,6.1,11.7,39,0.00,,,0.00,Rainwise IP-100,2013-04-06 11:44:00,
2013-04-06 07:49:00,35.2,14.0,30.11,NW,315,4.7,16.3,38,0.00,,,0.00,Rainwise IP-100,2013-04-06 11:49:00,
2013-04-06 07:54:00,35.5,14.0,30.12,NNW,337,5.8,12.4,38,0.00,,,0.00,Rainwise IP-100,2013-04-06 11:54:00,
2013-04-06 07:59:00,35.5,14.0,30.12,NNW,337,13.1,17.0,37,0.00,,,0.00,Rainwise IP-100,2013-04-06 11:59:00,
2013-04-06 08:04:00,35.6,14.0,30.12,NNW,337,9.6,16.3,37,0.00,,,0.00,Rainwise IP-100,2013-04-06 12:04:00,
2013-04-06 08:09:00,36.0,14.0,30.13,WNW,292,3.0,15.6,37,0.00,,,0.00,Rainwise IP-100,2013-04-06 12:09:00,
2013-04-06 08:14:00,36.3,14.0,30.13,NNW,337,2.8,14.2,37,0.00,,,0.00,Rainwise IP-100,2013-04-06 12:14:00,
2013-04-06 08:19:00,36.3,14.0,30.13,NNW,337,6.3,13.1,37,0.00,,,0.00,Rainwise IP-100,2013-04-06 12:19:00,
2013-04-06 08:24:00,36.4,14.0,30.14,North,360,11.9,19.8,37,0.00,,,0.00,Rainwise IP-100,2013-04-06 12:24:00,
2013-04-06 08:29:00,36.3,14.0,30.14,NW,315,7.0,18.9,37,0.00,,,0.00,Rainwise IP-100,2013-04-06 12:29:00,
2013-04-06 08:34:00,36.2,14.0,30.14,NNW,337,9.8,16.3,38,0.00,,,0.00,Rainwise IP-100,2013-04-06 12:34:00,
2013-04-06 08:39:00,36.3,14.0,30.14,NNW,337,7.2,15.2,38,0.00,,,0.00,Rainwise IP-100,2013-04-06 12:39:00,
2013-04-06 08:44:00,36.4,14.0,30.15,West,270,11.7,18.9,37,0.00,,,0.00,Rainwise IP-100,2013-04-06 12:44:00,
2013-04-06 08:49:00,36.5,14.0,30.15,NW,315,9.8,21.0,37,0.00,,,0.00,Rainwise IP-100,2013-04-06 12:49:00,
2013-04-06 08:54:00,36.5,14.0,30.15,WNW,292,9.6,19.1,36,0.00,,,0.00,Rainwise IP-100,2013-04-06 12:54:00,
2013-04-06 08:59:00,36.6,14.0,30.15,NNW,337,15.6,21.2,35,0.00,,,0.00,Rainwise IP-100,2013-04-06 12:59:00,
2013-04-06 09:04:00,36.9,14.0,30.16,NNW,337,8.2,15.9,35,0.00,,,0.00,Rainwise IP-100,2013-04-06 13:04:00,
2013-04-06 09:09:00,37.1,14.0,30.16,North,360,12.8,19.1,35,0.00,,,0.00,Rainwise IP-100,2013-04-06 13:09:00,
2013-04-06 09:14:00,37.1,14.0,30.17,NNW,337,5.4,19.4,36,0.00,,,0.00,Rainwise IP-100,2013-04-06 13:14:00,
2013-04-06 09:19:00,37.2,14.0,30.17,North,360,5.1,16.3,36,0.00,,,0.00,Rainwise IP-100,2013-04-06 13:19:00,
2013-04-06 09:24:00,37.2,14.0,30.17,WNW,292,15.6,18.9,36,0.00,,,0.00,Rainwise IP-100,2013-04-06 13:24:00,
2013-04-06 09:29:00,36.8,14.0,30.17,NNW,337,5.1,16.6,37,0.00,,,0.00,Rainwise IP-100,2013-04-06 13:29:00,
2013-04-06 09:34:00,36.5,14.0,30.17,NNW,337,14.0,22.9,36,0.00,,,0.00,Rainwise IP-100,2013-04-06 13:34:00,
2013-04-06 09:39:00,36.6,11.0,30.17,NNE,22,6.1,24.7,34,0.00,,,0.00,Rainwise IP-100,2013-04-06 13:39:00,
2013-04-06 09:44:00,37.1,11.0,30.17,NNE,22,6.1,17.0,33,0.00,,,0.00,Rainwise IP-100,2013-04-06 13:44:00,
2013-04-06 09:49:00,37.3,11.0,30.18,NNW,337,7.9,21.5,33,0.00,,,0.00,Rainwise IP-100,2013-04-06 13:49:00,
2013-04-06 09:54:00,37.2,11.0,30.18,NNW,337,5.8,16.3,32,0.00,,,0.00,Rainwise IP-100,2013-04-06 13:54:00,
2013-04-06 09:59:00,37.5,11.0,30.18,NNW,337,11.0,20.1,32,0.00,,,0.00,Rainwise IP-100,2013-04-06 13:59:00,
2013-04-06 10:04:00,37.5,11.0,30.18,WNW,292,8.9,18.0,32,0.00,,,0.00,Rainwise IP-100,2013-04-06 14:04:00,
2013-04-06 10:09:00,37.3,11.0,30.18,North,360,6.3,16.6,32,0.00,,,0.00,Rainwise IP-100,2013-04-06 14:09:00,
2013-04-06 10:14:00,37.5,11.0,30.18,North,360,12.4,14.0,32,0.00,,,0.00,Rainwise IP-100,2013-04-06 14:14:00,
2013-04-06 10:19:00,37.8,11.0,30.19,NNW,337,8.4,14.0,32,0.00,,,0.00,Rainwise IP-100,2013-04-06 14:19:00,
2013-04-06 10:24:00,38.1,11.0,30.19,NNW,337,8.2,19.6,31,0.00,,,0.00,Rainwise IP-100,2013-04-06 14:24:00,
2013-04-06 10:29:00,38.3,11.0,30.20,SE,135,0.0,17.0,31,0.00,,,0.00,Rainwise IP-100,2013-04-06 14:29:00,
2013-04-06 10:34:00,38.5,11.0,30.20,WNW,292,3.7,14.5,31,0.00,,,0.00,Rainwise IP-100,2013-04-06 14:34:00,
2013-04-06 10:39:00,38.2,11.0,30.19,NNW,337,10.3,12.1,32,0.00,,,0.00,Rainwise IP-100,2013-04-06 14:39:00,
2013-04-06 10:44:00,38.3,11.0,30.19,WNW,292,11.2,20.1,31,0.00,,,0.00,Rainwise IP-100,2013-04-06 14:44:00,
2013-04-06 10:49:00,38.4,11.0,30.19,NW,315,9.1,14.7,31,0.00,,,0.00,Rainwise IP-100,2013-04-06 14:49:00,
2013-04-06 10:54:00,38.5,11.0,30.20,NW,315,10.3,14.2,31,0.00,,,0.00,Rainwise IP-100,2013-04-06 14:54:00,
2013-04-06 10:59:00,39.1,11.0,30.20,North,360,7.9,11.9,31,0.00,,,0.00,Rainwise IP-100,2013-04-06 14:59:00,
2013-04-06 11:04:00,39.6,14.0,30.19,WNW,292,4.2,11.0,31,0.00,,,0.00,Rainwise IP-100,2013-04-06 15:04:00,
2013-04-06 11:09:00,39.9,14.0,30.20,West,270,16.1,16.1,31,0.00,,,0.00,Rainwise IP-100,2013-04-06 15:09:00,
2013-04-06 11:14:00,39.4,11.0,30.21,NW,315,13.8,17.0,31,0.00,,,0.00,Rainwise IP-100,2013-04-06 15:14:00,
2013-04-06 11:19:00,39.1,11.0,30.21,NW,315,5.1,13.8,31,0.00,,,0.00,Rainwise IP-100,2013-04-06 15:19:00,
2013-04-06 11:24:00,39.2,11.0,30.20,WNW,292,5.1,17.5,30,0.00,,,0.00,Rainwise IP-100,2013-04-06 15:24:00,
2013-04-06 11:29:00,39.6,14.0,30.20,North,360,6.5,19.6,30,0.00,,,0.00,Rainwise IP-100,2013-04-06 15:29:00,
2013-04-06 11:34:00,39.6,11.0,30.20,WNW,292,6.5,16.1,29,0.00,,,0.00,Rainwise IP-100,2013-04-06 15:34:00,
2013-04-06 11:39:00,39.7,11.0,30.21,NW,315,5.8,13.8,29,0.00,,,0.00,Rainwise IP-100,2013-04-06 15:39:00,
2013-04-06 11:44:00,39.8,14.0,30.21,NNW,337,6.5,15.2,30,0.00,,,0.00,Rainwise IP-100,2013-04-06 15:44:00,
2013-04-06 11:49:00,39.8,11.0,30.21,NNW,337,6.5,14.7,29,0.00,,,0.00,Rainwise IP-100,2013-04-06 15:49:00,
2013-04-06 11:54:00,40.2,14.0,30.20,NW,315,6.3,16.8,30,0.00,,,0.00,Rainwise IP-100,2013-04-06 15:54:00,
2013-04-06 12:00:00,40.4,14.0,30.20,NNW,337,11.4,15.6,30,0.00,,,0.00,Rainwise IP-100,2013-04-06 16:00:00,
2013-04-06 12:05:00,40.1,11.0,30.20,NW,315,7.5,13.8,29,0.00,,,0.00,Rainwise IP-100,2013-04-06 16:05:00,
2013-04-06 12:10:00,40.4,11.0,30.20,NNW,337,7.5,14.0,29,0.00,,,0.00,Rainwise IP-100,2013-04-06 16:10:00,
2013-04-06 12:15:00,40.9,14.0,30.21,NNE,22,11.9,16.6,29,0.00,,,0.00,Rainwise IP-100,2013-04-06 16:15:00,
2013-04-06 12:20:00,41.0,14.0,30.21,North,360,13.3,18.7,29,0.00,,,0.00,Rainwise IP-100,2013-04-06 16:20:00,
2013-04-06 12:25:00,40.6,11.0,30.21,WNW,292,9.6,14.9,28,0.00,,,0.00,Rainwise IP-100,2013-04-06 16:25:00,
2013-04-06 12:30:00,40.6,11.0,30.21,NNW,337,4.0,15.6,28,0.00,,,0.00,Rainwise IP-100,2013-04-06 16:30:00,
2013-04-06 12:35:00,41.4,11.0,30.20,NW,315,12.1,15.9,28,0.00,,,0.00,Rainwise IP-100,2013-04-06 16:35:00,
2013-04-06 12:40:00,41.6,11.0,30.20,NNW,337,7.2,15.9,27,0.00,,,0.00,Rainwise IP-100,2013-04-06 16:40:00,
2013-04-06 12:45:00,40.9,11.0,30.20,WSW,247,4.0,15.9,26,0.00,,,0.00,Rainwise IP-100,2013-04-06 16:45:00,
2013-04-06 12:50:00,40.9,11.0,30.21,NNE,22,1.9,15.2,26,0.00,,,0.00,Rainwise IP-100,2013-04-06 16:50:00,
2013-04-06 12:55:00,41.0,11.0,30.21,SW,225,5.6,13.1,27,0.00,,,0.00,Rainwise IP-100,2013-04-06 16:55:00,
2013-04-06 13:00:00,41.3,11.0,30.21,NW,315,4.2,12.1,28,0.00,,,0.00,Rainwise IP-100,2013-04-06 17:00:00,
2013-04-06 13:05:00,41.5,14.0,30.21,West,270,7.2,14.2,28,0.00,,,0.00,Rainwise IP-100,2013-04-06 17:05:00,
2013-04-06 13:10:00,41.5,14.0,30.21,North,360,6.5,16.8,28,0.00,,,0.00,Rainwise IP-100,2013-04-06 17:10:00,
2013-04-06 13:15:00,41.8,11.0,30.21,WSW,247,5.4,13.3,27,0.00,,,0.00,Rainwise IP-100,2013-04-06 17:15:00,
2013-04-06 13:20:00,42.4,11.0,30.21,WNW,292,3.5,14.5,27,0.00,,,0.00,Rainwise IP-100,2013-04-06 17:20:00,
2013-04-06 13:25:00,42.6,14.0,30.21,NNW,337,4.0,13.5,28,0.00,,,0.00,Rainwise IP-100,2013-04-06 17:25:00,
2013-04-06 13:30:00,42.9,14.0,30.21,WNW,292,10.3,14.0,28,0.00,,,0.00,Rainwise IP-100,2013-04-06 17:30:00,
2013-04-06 13:35:00,42.9,14.0,30.21,North,360,7.2,14.0,27,0.00,,,0.00,Rainwise IP-100,2013-04-06 17:35:00,
2013-04-06 13:40:00,42.8,11.0,30.21,NNW,337,3.0,17.5,26,0.00,,,0.00,Rainwise IP-100,2013-04-06 17:40:00,
2013-04-06 13:45:00,42.8,11.0,30.21,NNW,337,4.9,16.6,24,0.00,,,0.00,Rainwise IP-100,2013-04-06 17:45:00,
2013-04-06 13:50:00,42.6,8.0,30.20,NNW,337,7.9,18.7,23,0.00,,,0.00,Rainwise IP-100,2013-04-06 17:50:00,
2013-04-06 13:55:00,42.9,8.0,30.20,NNE,22,13.8,16.1,23,0.00,,,0.00,Rainwise IP-100,2013-04-06 17:55:00,
2013-04-06 14:00:00,43.7,11.0,30.21,WSW,247,11.7,17.0,23,0.00,,,0.00,Rainwise IP-100,2013-04-06 18:00:00,
2013-04-06 14:05:00,43.9,11.0,30.21,West,270,4.7,13.5,23,0.00,,,0.00,Rainwise IP-100,2013-04-06 18:05:00,
2013-04-06 14:10:00,43.4,8.0,30.21,NNW,337,5.8,13.8,22,0.00,,,0.00,Rainwise IP-100,2013-04-06 18:10:00,
2013-04-06 14:15:00,43.3,8.0,30.21,West,270,8.9,14.7,22,0.00,,,0.00,Rainwise IP-100,2013-04-06 18:15:00,
2013-04-06 14:20:00,43.1,8.0,30.21,NNW,337,5.1,12.8,22,0.00,,,0.00,Rainwise IP-100,2013-04-06 18:20:00,
2013-04-06 14:25:00,43.3,8.0,30.21,NNW,337,3.7,14.9,23,0.00,,,0.00,Rainwise IP-100,2013-04-06 18:25:00,
2013-04-06 14:30:00,43.9,8.0,30.21,NNW,337,3.5,14.9,22,0.00,,,0.00,Rainwise IP-100,2013-04-06 18:30:00,
2013-04-06 14:35:00,44.1,8.0,30.21,NW,315,4.7,11.7,22,0.00,,,0.00,Rainwise IP-100,2013-04-06 18:35:00,
2013-04-06 14:40:00,44.5,11.0,30.21,NNW,337,1.6,12.4,22,0.00,,,0.00,Rainwise IP-100,2013-04-06 18:40:00,
2013-04-06 14:45:00,44.2,11.0,30.21,SW,225,7.0,10.3,23,0.00,,,0.00,Rainwise IP-100,2013-04-06 18:45:00,
2013-04-06 14:50:00,44.0,11.0,30.21,WNW,292,5.6,12.8,23,0.00,,,0.00,Rainwise IP-100,2013-04-06 18:50:00,
2013-04-06 14:55:00,44.4,11.0,30.21,NNW,337,6.3,9.6,24,0.00,,,0.00,Rainwise IP-100,2013-04-06 18:55:00,
2013-04-06 15:00:00,44.5,11.0,30.21,NW,315,4.7,14.2,23,0.00,,,0.00,Rainwise IP-100,2013-04-06 19:00:00,
2013-04-06 15:05:00,44.7,11.0,30.21,North,360,2.1,10.5,23,0.00,,,0.00,Rainwise IP-100,2013-04-06 19:05:00,
2013-04-06 15:10:00,45.1,11.0,30.21,NE,45,0.0,10.0,23,0.00,,,0.00,Rainwise IP-100,2013-04-06 19:10:00,
2013-04-06 15:15:00,45.4,11.0,30.21,NNE,22,5.8,16.8,22,0.00,,,0.00,Rainwise IP-100,2013-04-06 19:15:00,
2013-04-06 15:20:00,45.5,11.0,30.22,NW,315,7.7,10.3,21,0.00,,,0.00,Rainwise IP-100,2013-04-06 19:20:00,
2013-04-06 15:25:00,45.7,11.0,30.21,WNW,292,7.7,11.4,22,0.00,,,0.00,Rainwise IP-100,2013-04-06 19:25:00,
2013-04-06 15:30:00,45.7,11.0,30.21,WSW,247,7.5,15.6,21,0.00,,,0.00,Rainwise IP-100,2013-04-06 19:30:00,
2013-04-06 15:35:00,45.3,8.0,30.21,NNW,337,4.2,12.4,21,0.00,,,0.00,Rainwise IP-100,2013-04-06 19:35:00,
2013-04-06 15:40:00,45.1,8.0,30.21,NW,315,7.0,13.5,20,0.00,,,0.00,Rainwise IP-100,2013-04-06 19:40:00,
2013-04-06 15:45:00,45.2,8.0,30.21,WNW,292,6.5,13.1,20,0.00,,,0.00,Rainwise IP-100,2013-04-06 19:45:00,
2013-04-06 15:50:00,45.5,8.0,30.21,NNW,337,7.5,10.3,20,0.00,,,0.00,Rainwise IP-100,2013-04-06 19:50:00,
2013-04-06 15:55:00,45.5,8.0,30.22,WNW,292,2.8,14.9,20,0.00,,,0.00,Rainwise IP-100,2013-04-06 19:55:00,
2013-04-06 16:00:00,45.6,8.0,30.21,WNW,292,5.8,12.4,19,0.00,,,0.00,Rainwise IP-100,2013-04-06 20:00:00,
2013-04-06 16:05:00,45.7,8.0,30.21,WSW,247,6.8,11.2,19,0.00,,,0.00,Rainwise IP-100,2013-04-06 20:05:00,
2013-04-06 16:10:00,45.8,8.0,30.21,NNW,337,4.9,11.0,19,0.00,,,0.00,Rainwise IP-100,2013-04-06 20:10:00,
2013-04-06 16:15:00,45.9,8.0,30.22,NNE,22,5.4,10.5,20,0.00,,,0.00,Rainwise IP-100,2013-04-06 20:15:00,
2013-04-06 16:20:00,45.9,8.0,30.21,SW,225,4.9,8.9,20,0.00,,,0.00,Rainwise IP-100,2013-04-06 20:20:00,
2013-04-06 16:25:00,45.9,8.0,30.22,WNW,292,4.7,10.0,20,0.00,,,0.00,Rainwise IP-100,2013-04-06 20:25:00,
2013-04-06 16:30:00,46.0,8.0,30.22,WSW,247,2.8,8.9,20,0.00,,,0.00,Rainwise IP-100,2013-04-06 20:30:00,
2013-04-06 16:35:00,46.4,8.0,30.22,NNW,337,4.2,10.5,20,0.00,,,0.00,Rainwise IP-100,2013-04-06 20:35:00,
2013-04-06 16:40:00,46.6,8.0,30.22,NNW,337,4.9,12.4,19,0.00,,,0.00,Rainwise IP-100,2013-04-06 20:40:00,
2013-04-06 16:45:00,46.2,8.0,30.22,NNW,337,6.3,13.3,18,0.00,,,0.00,Rainwise IP-100,2013-04-06 20:45:00,
2013-04-06 16:50:00,46.3,8.0,30.22,WSW,247,7.0,11.7,18,0.00,,,0.00,Rainwise IP-100,2013-04-06 20:50:00,
2013-04-06 16:55:00,46.0,11.0,30.23,WSW,247,5.6,14.7,21,0.00,,,0.00,Rainwise IP-100,2013-04-06 20:55:00,
2013-04-06 17:00:00,44.5,16.0,30.24,WSW,247,7.2,14.2,30,0.00,,,0.00,Rainwise IP-100,2013-04-06 21:00:00,
2013-04-06 17:05:00,43.3,21.0,30.24,SSW,202,7.7,14.2,38,0.00,,,0.00,Rainwise IP-100,2013-04-06 21:05:00,
2013-04-06 17:10:00,43.0,21.0,30.24,SSW,202,7.2,16.6,40,0.00,,,0.00,Rainwise IP-100,2013-04-06 21:10:00,
2013-04-06 17:15:00,43.0,21.0,30.25,WSW,247,4.0,14.9,40,0.00,,,0.00,Rainwise IP-100,2013-04-06 21:15:00,
2013-04-06 17:20:00,42.7,21.0,30.24,SSW,202,7.9,14.7,40,0.00,,,0.00,Rainwise IP-100,2013-04-06 21:20:00,
2013-04-06 17:25:00,42.4,21.0,30.24,SW,225,3.5,13.3,40,0.00,,,0.00,Rainwise IP-100,2013-04-06 21:25:00,
2013-04-06 17:30:00,42.3,21.0,30.25,SSW,202,8.9,15.2,41,0.00,,,0.00,Rainwise IP-100,2013-04-06 21:30:00,
2013-04-06 17:35:00,42.4,21.0,30.25,WSW,247,6.8,13.5,39,0.00,,,0.00,Rainwise IP-100,2013-04-06 21:35:00,
2013-04-06 17:40:00,42.4,18.0,30.25,SSW,202,10.3,11.7,38,0.00,,,0.00,Rainwise IP-100,2013-04-06 21:40:00,
2013-04-06 17:45:00,42.4,21.0,30.26,SW,225,9.8,11.7,40,0.00,,,0.00,Rainwise IP-100,2013-04-06 21:45:00,
2013-04-06 17:50:00,42.4,21.0,30.26,SW,225,8.2,15.6,42,0.00,,,0.00,Rainwise IP-100,2013-04-06 21:50:00,
2013-04-06 17:55:00,42.3,23.0,30.26,SSW,202,11.0,15.2,43,0.00,,,0.00,Rainwise IP-100,2013-04-06 21:55:00,
2013-04-06 18:00:00,41.9,23.0,30.26,SW,225,11.0,14.5,43,0.00,,,0.00,Rainwise IP-100,2013-04-06 22:00:00,
2013-04-06 18:05:00,41.6,23.0,30.26,SSW,202,6.5,14.7,43,0.00,,,0.00,Rainwise IP-100,2013-04-06 22:05:00,
2013-04-06 18:10:00,41.6,23.0,30.26,SSW,202,4.0,13.8,45,0.00,,,0.00,Rainwise IP-100,2013-04-06 22:10:00,
2013-04-06 18:15:00,41.7,23.0,30.26,SW,225,2.8,13.3,46,0.00,,,0.00,Rainwise IP-100,2013-04-06 22:15:00,
2013-04-06 18:20:00,41.5,23.0,30.27,SW,225,9.1,13.3,46,0.00,,,0.00,Rainwise IP-100,2013-04-06 22:20:00,
2013-04-06 18:25:00,41.2,23.0,30.26,SW,225,5.6,11.9,47,0.00,,,0.00,Rainwise IP-100,2013-04-06 22:25:00,
2013-04-06 18:30:00,41.1,23.0,30.27,SSW,202,7.5,12.4,47,0.00,,,0.00,Rainwise IP-100,2013-04-06 22:30:00,
2013-04-06 18:35:00,40.9,23.0,30.27,SSW,202,14.0,15.6,48,0.00,,,0.00,Rainwise IP-100,2013-04-06 22:35:00,
2013-04-06 18:40:00,40.6,24.0,30.27,WSW,247,8.6,16.6,50,0.00,,,0.00,Rainwise IP-100,2013-04-06 22:40:00,
2013-04-06 18:45:00,40.1,24.0,30.27,WSW,247,8.2,13.3,51,0.00,,,0.00,Rainwise IP-100,2013-04-06 22:45:00,
2013-04-06 18:50:00,39.5,24.0,30.28,SW,225,7.2,11.9,53,0.00,,,0.00,Rainwise IP-100,2013-04-06 22:50:00,
2013-04-06 18:55:00,39.1,24.0,30.28,SW,225,4.7,15.4,55,0.00,,,0.00,Rainwise IP-100,2013-04-06 22:55:00,
2013-04-06 19:00:00,38.8,24.0,30.28,WSW,247,4.9,11.9,56,0.00,,,0.00,Rainwise IP-100,2013-04-06 23:00:00,
2013-04-06 19:05:00,38.5,26.0,30.28,SW,225,1.9,11.7,57,0.00,,,0.00,Rainwise IP-100,2013-04-06 23:05:00,
2013-04-06 19:10:00,38.4,24.0,30.28,SW,225,7.0,10.0,57,0.00,,,0.00,Rainwise IP-100,2013-04-06 23:10:00,
2013-04-06 19:15:00,38.3,24.0,30.28,SW,225,6.5,10.3,57,0.00,,,0.00,Rainwise IP-100,2013-04-06 23:15:00,
2013-04-06 19:20:00,38.2,24.0,30.29,SW,225,10.3,10.5,57,0.00,,,0.00,Rainwise IP-100,2013-04-06 23:20:00,
2013-04-06 19:25:00,38.1,24.0,30.29,SSW,202,9.1,17.5,58,0.00,,,0.00,Rainwise IP-100,2013-04-06 23:25:00,
2013-04-06 19:30:00,38.2,26.0,30.29,SW,225,5.1,15.4,59,0.00,,,0.00,Rainwise IP-100,2013-04-06 23:30:00,
2013-04-06 19:35:00,38.2,26.0,30.29,West,270,11.2,14.0,60,0.00,,,0.00,Rainwise IP-100,2013-04-06 23:35:00,
2013-04-06 19:40:00,38.2,26.0,30.30,SW,225,6.5,19.1,61,0.00,,,0.00,Rainwise IP-100,2013-04-06 23:40:00,
2013-04-06 19:45:00,38.0,26.0,30.30,SSW,202,9.1,14.9,61,0.00,,,0.00,Rainwise IP-100,2013-04-06 23:45:00,
2013-04-06 19:50:00,37.9,26.0,30.30,SW,225,5.1,11.2,63,0.00,,,0.00,Rainwise IP-100,2013-04-06 23:50:00,
2013-04-06 19:55:00,37.7,28.0,30.30,SW,225,8.4,14.2,64,0.00,,,0.00,Rainwise IP-100,2013-04-06 23:55:00,
2013-04-06 20:00:00,37.6,28.0,30.30,WSW,247,6.3,13.3,64,0.00,,,0.00,Rainwise IP-100,2013-04-07 00:00:00,
2013-04-06 20:05:00,37.6,28.0,30.31,SSW,202,8.4,14.5,64,0.00,,,0.00,Rainwise IP-100,2013-04-07 00:05:00,
2013-04-06 20:10:00,37.5,28.0,30.31,SSW,202,4.4,14.5,64,0.00,,,0.00,Rainwise IP-100,2013-04-07 00:10:00,
2013-04-06 20:15:00,37.5,28.0,30.31,SSW,202,5.6,14.5,64,0.00,,,0.00,Rainwise IP-100,2013-04-07 00:15:00,
2013-04-06 20:20:00,37.5,28.0,30.32,WSW,247,5.4,13.8,65,0.00,,,0.00,Rainwise IP-100,2013-04-07 00:20:00,
2013-04-06 20:25:00,37.5,28.0,30.32,SW,225,6.3,15.2,65,0.00,,,0.00,Rainwise IP-100,2013-04-07 00:25:00,
2013-04-06 20:30:00,37.6,28.0,30.32,WSW,247,4.2,14.2,66,0.00,,,0.00,Rainwise IP-100,2013-04-07 00:30:00,
2013-04-06 20:36:00,37.6,28.0,30.32,SW,225,4.0,11.7,66,0.00,,,0.00,Rainwise IP-100,2013-04-07 00:36:00,
2013-04-06 20:41:00,37.5,28.0,30.32,SSE,157,3.5,15.4,65,0.00,,,0.00,Rainwise IP-100,2013-04-07 00:41:00,
2013-04-06 20:46:00,37.4,26.0,30.32,SW,225,5.1,9.3,65,0.00,,,0.00,Rainwise IP-100,2013-04-07 00:46:00,
2013-04-06 20:51:00,37.4,28.0,30.32,SSW,202,4.4,10.0,66,0.00,,,0.00,Rainwise IP-100,2013-04-07 00:51:00,
2013-04-06 20:56:00,37.3,28.0,30.32,SW,225,3.5,9.6,66,0.00,,,0.00,Rainwise IP-100,2013-04-07 00:56:00,
2013-04-06 21:01:00,37.3,28.0,30.32,SW,225,4.7,8.9,67,0.00,,,0.00,Rainwise IP-100,2013-04-07 01:01:00,
2013-04-06 21:06:00,37.2,28.0,30.32,SSW,202,4.2,8.4,68,0.00,,,0.00,Rainwise IP-100,2013-04-07 01:06:00,
2013-04-06 21:11:00,37.2,28.0,30.32,SW,225,2.6,9.1,69,0.00,,,0.00,Rainwise IP-100,2013-04-07 01:11:00,
2013-04-06 21:16:00,37.1,28.0,30.32,WSW,247,4.4,8.9,69,0.00,,,0.00,Rainwise IP-100,2013-04-07 01:16:00,
2013-04-06 21:21:00,37.0,28.0,30.32,SSW,202,4.0,7.9,69,0.00,,,0.00,Rainwise IP-100,2013-04-07 01:21:00,
2013-04-06 21:26:00,37.0,28.0,30.33,WSW,247,3.0,10.3,69,0.00,,,0.00,Rainwise IP-100,2013-04-07 01:26:00,
2013-04-06 21:31:00,37.0,28.0,30.33,SW,225,5.4,9.3,70,0.00,,,0.00,Rainwise IP-100,2013-04-07 01:31:00,
2013-04-06 21:36:00,37.0,28.0,30.32,SSW,202,5.4,10.0,70,0.00,,,0.00,Rainwise IP-100,2013-04-07 01:36:00,
2013-04-06 21:41:00,37.0,28.0,30.32,SW,225,4.4,11.0,70,0.00,,,0.00,Rainwise IP-100,2013-04-07 01:41:00,
2013-04-06 21:46:00,37.0,28.0,30.32,WSW,247,3.0,5.8,70,0.00,,,0.00,Rainwise IP-100,2013-04-07 01:46:00,
2013-04-06 21:51:00,37.0,28.0,30.32,SW,225,2.8,8.2,70,0.00,,,0.00,Rainwise IP-100,2013-04-07 01:51:00,
2013-04-06 21:56:00,36.8,28.0,30.33,WSW,247,4.4,6.8,70,0.00,,,0.00,Rainwise IP-100,2013-04-07 01:56:00,
2013-04-06 22:01:00,36.8,29.0,30.32,WSW,247,2.1,7.0,71,0.00,,,0.00,Rainwise IP-100,2013-04-07 02:01:00,
2013-04-06 22:06:00,36.8,29.0,30.32,SW,225,2.8,7.5,72,0.00,,,0.00,Rainwise IP-100,2013-04-07 02:06:00,
2013-04-06 22:11:00,36.6,29.0,30.33,SW,225,3.0,4.4,72,0.00,,,0.00,Rainwise IP-100,2013-04-07 02:11:00,
2013-04-06 22:16:00,36.5,29.0,30.32,WSW,247,2.1,4.9,73,0.00,,,0.00,Rainwise IP-100,2013-04-07 02:16:00,
2013-04-06 22:21:00,36.6,29.0,30.33,SSW,202,4.2,4.7,73,0.00,,,0.00,Rainwise IP-100,2013-04-07 02:21:00,
2013-04-06 22:26:00,36.4,29.0,30.32,WSW,247,2.8,6.3,74,0.00,,,0.00,Rainwise IP-100,2013-04-07 02:26:00,
2013-04-06 22:31:00,36.4,29.0,30.32,WSW,247,3.0,4.7,75,0.00,,,0.00,Rainwise IP-100,2013-04-07 02:31:00,
2013-04-06 22:36:00,36.4,29.0,30.32,WSW,247,4.7,4.7,76,0.00,,,0.00,Rainwise IP-100,2013-04-07 02:36:00,
2013-04-06 22:41:00,36.4,29.0,30.32,WSW,247,3.5,5.4,76,0.00,,,0.00,Rainwise IP-100,2013-04-07 02:41:00,
2013-04-06 22:46:00,36.3,29.0,30.32,WSW,247,3.0,5.6,76,0.00,,,0.00,Rainwise IP-100,2013-04-07 02:46:00,
2013-04-06 22:51:00,35.9,29.0,30.32,SSW,202,2.8,3.7,77,0.00,,,0.00,Rainwise IP-100,2013-04-07 02:51:00,
2013-04-06 22:56:00,35.4,28.0,30.32,WSW,247,1.4,3.7,77,0.00,,,0.00,Rainwise IP-100,2013-04-07 02:56:00,
2013-04-06 23:01:00,35.2,29.0,30.32,WNW,292,1.2,3.5,78,0.00,,,0.00,Rainwise IP-100,2013-04-07 03:01:00,
2013-04-06 23:06:00,35.4,29.0,30.32,West,270,1.4,3.3,79,0.00,,,0.00,Rainwise IP-100,2013-04-07 03:06:00,
2013-04-06 23:11:00,35.6,31.0,30.32,WSW,247,1.4,4.9,79,0.00,,,0.00,Rainwise IP-100,2013-04-07 03:11:00,
2013-04-06 23:16:00,35.2,29.0,30.32,WSW,247,1.2,2.6,79,0.00,,,0.00,Rainwise IP-100,2013-04-07 03:16:00,
2013-04-06 23:21:00,34.6,29.0,30.32,WSW,247,1.6,2.1,80,0.00,,,0.00,Rainwise IP-100,2013-04-07 03:21:00,
2013-04-06 23:26:00,34.6,29.0,30.32,WSW,247,0.0,2.6,81,0.00,,,0.00,Rainwise IP-100,2013-04-07 03:26:00,
2013-04-06 23:31:00,35.1,29.0,30.32,WNW,292,1.4,3.0,82,0.00,,,0.00,Rainwise IP-100,2013-04-07 03:31:00,
2013-04-06 23:36:00,35.2,29.0,30.32,WNW,292,1.6,2.8,82,0.00,,,0.00,Rainwise IP-100,2013-04-07 03:36:00,
2013-04-06 23:41:00,35.0,29.0,30.31,WNW,292,0.0,1.6,82,0.00,,,0.00,Rainwise IP-100,2013-04-07 03:41:00,
2013-04-06 23:46:00,34.5,29.0,30.32,SSW,202,2.6,3.0,82,0.00,,,0.00,Rainwise IP-100,2013-04-07 03:46:00,
2013-04-06 23:51:00,34.0,31.0,30.32,SSW,202,1.2,3.0,83,0.00,,,0.00,Rainwise IP-100,2013-04-07 03:51:00,
2013-04-06 23:56:00,33.8,31.0,30.32,SSW,202,1.6,1.9,84,0.00,,,0.00,Rainwise IP-100,2013-04-07 03:56:00,